Location: Sternwarte ZA, Rosenfeld-Brittheim
(48.2889°N, 8.6789°E)
Time: 03:56:41
(UTC+02:00)

ISS - Pass Details

Date: 26 May 2017
Orbit: 401 x 408 km, 51.6° (Epoch: 25 June)

Event Time Altitude Azimuth Distance (km) Brightness Sun altitude
Rises 01:44:48 0° 286° (WNW) 2,339 0.2 -20.4°
Reaches altitude 10° 01:46:56 10° 292° (WNW) 1,475 -0.8 -20.4°
Maximum altitude 01:50:10 49° 9° (N) 535 -2.9 -20.3°
Drops below altitude 10° 01:53:23 10° 86° (E) 1,468 -0.9 -20.2°
Sets 01:55:30 0° 92° (E) 2,326 0.1 -20.2°
